FW1542 Weather Reports


Display with metric or nautical units.
time (UTC)temp
F
wind
direction
speed
MPH
gust
MPH
rain 1hr
in
rain 24hr
in
rain mn
in
humidity
%
barometer
mb
20260507104551 63 42 4.0 14.0 0.00 0.00 0.00 81 1016.5
20260507104544 63 13 5.0 16.0 0.00 0.00 0.00 81 1013.8
20260507103050 63 26 3.0 14.0 0.00 0.00 0.00 82 1016.7
20260507103043 63 36 4.0 14.0 0.00 0.00 0.00 81 1014.0
20260507101548 63 55 5.0 14.0 0.00 0.00 0.00 82 1016.7
20260507101546 63 5 3.0 14.0 0.00 0.00 0.00 82 1014.0
20260507100045 64 46 5.0 11.0 0.00 0.00 0.00 82 1016.6
20260507100041 64 348 6.0 11.0 0.00 0.00 0.00 81 1013.7
20260507094547 64 29 3.0 10.0 0.00 0.00 0.00 81 1013.9
20260507094544 64 29 2.0 10.0 0.00 0.00 0.00 82 1016.6
20260507093049 64 19 5.0 12.0 0.00 0.00 0.00 81 1014.1
20260507093043 64 56 5.0 12.0 0.00 0.00 0.00 82 1016.8
20260507091548 64 52 2.0 11.0 0.00 0.00 0.00 81 1013.9
20260507091541 64 49 1.0 11.0 0.00 0.00 0.00 82 1016.6
20260507090047 64 38 4.0 12.0 0.00 0.00 0.00 81 1014.0
20260507090042 64 66 4.0 12.0 0.00 0.00 0.00 82 1016.7
20260507084544 64 38 4.0 14.0 0.00 0.00 0.00 82 1014.0
20260507084539 64 355 6.0 14.0 0.00 0.00 0.00 82 1016.7
20260507083049 64 360 3.0 11.0 0.00 0.00 0.00 81 1014.0
20260507083046 64 19 3.0 11.0 0.00 0.00 0.00 82 1016.6
20260507081542 64 14 2.0 9.0 0.00 0.00 0.00 81 1014.1
20260507081536 64 13 3.0 9.0 0.00 0.00 0.00 82 1016.7
20260507080116 64 5 4.0 10.0 0.00 0.00 0.00 82 1014.0
20260507080040 64 355 5.0 10.0 0.00 0.00 0.00 82 1016.7
20260507074546 64 17 3.0 10.0 0.00 0.00 0.00 82 1013.9
20260507074543 64 350 3.0 10.0 0.00 0.00 0.00 82 1016.6
20260507073050 64 328 3.0 10.0 0.00 0.00 0.00 82 1014.3
20260507073035 64 337 3.0 10.0 0.00 0.00 0.00 82 1016.9
20260507071559 64 15 4.0 12.0 0.00 0.00 0.00 82 1014.4
20260507071552 64 15 4.0 8.0 0.00 0.00 0.00 82 1017.0
20260507070051 64 71 5.0 12.0 0.00 0.00 0.00 82 1014.4
20260507070035 64 67 6.0 12.0 0.00 0.00 0.00 82 1017.1
20260507064554 64 39 6.0 15.0 0.00 0.00 0.00 82 1014.3
20260507064531 64 39 6.0 15.0 0.00 0.00 0.00 82 1016.8
20260507063054 64 25 4.0 13.0 0.00 0.00 0.00 82 1014.3
20260507063032 64 17 4.0 12.0 0.00 0.00 0.00 82 1016.8
20260507061551 65 34 6.0 13.0 0.00 0.00 0.00 82 1014.2
20260507061527 65 52 6.0 13.0 0.00 0.00 0.00 83 1016.8
20260507060047 65 69 5.0 11.0 0.00 0.00 0.00 82 1013.9
20260507060024 65 94 4.0 11.0 0.00 0.00 0.00 83 1016.4
20260507054551 65 32 4.0 11.0 0.00 0.00 0.00 82 1013.7
20260507054522 65 50 4.0 11.0 0.00 0.00 0.00 83 1016.3
20260507053047 65 40 3.0 13.0 0.00 0.00 0.00 82 1013.6
20260507053020 65 55 3.0 13.0 0.00 0.00 0.00 82 1016.1
20260507051544 65 40 6.0 16.0 0.00 0.00 0.00 81 1013.0
20260507051517 65 30 5.0 16.0 0.00 0.00 0.00 82 1015.4
20260507050047 65 51 4.0 15.0 0.00 0.00 0.00 81 1013.3
20260507050014 65 51 4.0 15.0 0.00 0.00 0.00 82 1015.7
20260507044546 65 35 4.0 13.0 0.00 0.00 0.00 81 1013.1
20260507044511 65 5 5.0 11.0 0.00 0.00 0.00 82 1015.6
20260507043047 65 61 4.0 13.0 0.00 0.00 0.00 82 1013.6
20260507043011 65 26 3.0 13.0 0.00 0.00 0.00 82 1016.0
20260507041547 65 348 6.0 14.0 0.00 0.00 0.00 81 1013.5
20260507041508 65 10 6.0 11.0 0.00 0.00 0.00 82 1015.8
20260507040057 65 26 4.0 13.0 0.00 0.00 0.00 81 1012.9
20260507040005 65 52 5.0 12.0 0.00 0.00 0.00 82 1015.4
20260507034552 66 38 5.0 14.0 0.00 0.00 0.00 81 1012.5
20260507034502 66 15 5.0 12.0 0.00 0.00 0.00 82 1014.8
20260507033100 66 28 4.0 11.0 0.00 0.00 0.00 82 1014.8
20260507033048 66 26 3.0 10.0 0.00 0.00 0.00 81 1012.4
20260507031605 66 5 5.0 13.0 0.00 0.00 0.00 81 1014.5
20260507031545 66 338 6.0 13.0 0.00 0.00 0.00 81 1012.5
20260507030057 66 48 4.0 13.0 0.00 0.00 0.00 81 1014.6
20260507030052 66 40 4.0 14.0 0.00 0.00 0.00 80 1012.4
20260507024553 67 349 7.0 16.0 0.00 0.00 0.00 81 1014.4
20260507024542 67 360 6.0 16.0 0.00 0.00 0.00 80 1012.3
20260507023049 67 336 5.0 16.0 0.00 0.00 0.00 80 1014.3
20260507023040 67 352 6.0 16.0 0.00 0.00 0.00 79 1012.3
20260507021547 68 5 5.0 16.0 0.00 0.00 0.00 79 1014.2
20260507021545 68 351 8.0 16.0 0.00 0.00 0.00 79 1012.0
20260507020047 68 334 7.0 11.0 0.00 0.00 0.00 79 1013.9
20260507014542 69 5 5.0 14.0 0.00 0.00 0.00 77 1011.5
20260507014540 69 33 6.0 14.0 0.00 0.00 0.00 78 1013.5
20260507013043 70 55 4.0 16.0 0.00 0.00 0.00 77 1010.9
20260507013039 70 46 4.0 16.0 0.00 0.00 0.00 77 1013.0
20260507011553 71 344 5.0 12.0 0.00 0.00 0.00 76 1010.7
20260507011538 71 338 5.0 11.0 0.00 0.00 0.00 76 1013.0
20260507010045 72 360 6.0 12.0 0.00 0.00 0.00 74 1010.8
20260507010030 72 360 6.0 12.0 0.00 0.00 0.00 75 1013.1
20260507004542 73 350 5.0 16.0 0.00 0.00 0.00 74 1010.4
20260507004526 73 355 5.0 16.0 0.00 0.00 0.00 74 1012.7
20260507003043 74 68 5.0 14.0 0.00 0.00 0.00 73 1010.3
20260507003023 74 52 7.0 13.0 0.00 0.00 0.00 74 1012.7
20260507001555 75 348 6.0 12.0 0.00 0.00 0.00 72 1010.3
20260507001521 75 360 7.0 12.0 0.00 0.00 0.00 73 1012.4
20260507000046 76 46 5.0 15.0 0.00 0.00 0.00 71 1010.0
20260507000019 76 54 5.0 15.0 0.00 0.00 0.00 72 1012.1
20260506234552 77 350 6.0 14.0 0.00 0.00 0.00 70 1009.6
20260506234517 77 67 6.0 14.0 0.00 0.00 0.00 71 1011.8
20260506233048 78 45 6.0 15.0 0.00 0.00 0.00 71 1009.6
20260506233017 78 26 6.0 15.0 0.00 0.00 0.00 72 1011.5
20260506231549 80 80 10.0 18.0 0.00 0.00 0.00 69 1009.2
20260506231515 80 79 10.0 18.0 0.00 0.00 0.00 70 1011.2
20260506230052 81 41 9.0 16.0 0.00 0.00 0.00 69 1009.0
20260506230014 81 347 9.0 16.0 0.00 0.00 0.00 69 1011.0
20260506224543 82 39 8.0 15.0 0.00 0.00 0.00 69 1008.9
20260506224523 82 50 8.0 15.0 0.00 0.00 0.00 70 1010.9
20260506223043 83 53 7.0 17.0 0.00 0.00 0.00 69 1008.8
20260506223013 83 355 7.0 17.0 0.00 0.00 0.00 70 1010.7
20260506221551 84 53 5.0 12.0 0.00 0.00 0.00 71 1008.4
20260506221511 84 27 6.0 12.0 0.00 0.00 0.00 71 1010.5
20260506220058 83 352 7.0 17.0 0.00 0.00 0.00 70 1008.3
20260506220012 83 5 5.0 17.0 0.00 0.00 0.00 71 1010.4
20260506214547 85 19 7.0 17.0 0.00 0.00 0.00 67 1008.3
20260506214511 85 328 7.0 17.0 0.00 0.00 0.00 68 1010.4
20260506213044 88 42 4.0 10.0 0.00 0.00 0.00 65 1008.2
20260506213019 88 49 3.0 10.0 0.00 0.00 0.00 66 1010.3
20260506211547 87 78 1.0 8.0 0.00 0.00 0.00 65 1008.2
20260506211516 87 80 1.0 8.0 0.00 0.00 0.00 66 1010.3
20260506210059 88 138 4.0 11.0 0.00 0.00 0.00 66 1008.2
20260506210010 88 46 4.0 11.0 0.00 0.00 0.00 66 1010.4
20260506204550 88 16 2.0 6.0 0.00 0.00 0.00 66 1008.4
20260506204507 87 17 2.0 6.0 0.00 0.00 0.00 69 1010.6
20260506203130 87 0 3.0 8.0 0.00 0.00 0.00 65 1008.5
20260506203006 87 83 2.0 8.0 0.00 0.00 0.00 66 1010.7
20260506201546 87 55 0.0 7.0 0.00 0.00 0.00 67 1008.7
20260506201503 87 119 0.0 7.0 0.00 0.00 0.00 68 1010.8
20260506200100 86 28 1.0 8.0 0.00 0.00 0.00 71 1011.0
20260506200050 86 28 2.0 8.0 0.00 0.00 0.00 70 1009.1
20260506194558 86 123 2.0 7.0 0.00 0.00 0.00 71 1011.2
20260506194550 86 118 2.0 7.0 0.00 0.00 0.00 71 1009.1
20260506193056 85 55 2.0 8.0 0.00 0.00 0.00 74 1011.2
20260506193041 85 52 2.0 8.0 0.00 0.00 0.00 74 1009.2
20260506191554 84 153 2.0 6.0 0.00 0.00 0.00 75 1011.3
20260506191544 84 104 1.0 8.0 0.00 0.00 0.00 75 1009.4
20260506190053 83 45 1.0 8.0 0.00 0.00 0.00 76 1011.4
20260506190050 83 44 3.0 8.0 0.00 0.00 0.00 76 1009.4
20260506184555 83 117 4.0 9.0 0.00 0.00 0.00 77 1011.6
20260506183047 82 109 4.0 9.0 0.00 0.00 0.00 77 1012.0
20260506183045 82 109 5.0 9.0 0.00 0.00 0.00 76 1009.9
20260506181545 82 44 3.0 9.0 0.00 0.00 0.00 79 1012.1
20260506181542 82 32 2.0 7.0 0.00 0.00 0.00 79 1010.1
20260506180045 82 82 5.0 10.0 0.00 0.00 0.00 78 1010.1
20260506174610 81 66 4.0 10.0 0.00 0.00 0.00 80 1010.2
20260506174541 81 67 4.0 10.0 0.00 0.00 0.00 80 1012.4
20260506173054 81 51 4.0 10.0 0.00 0.00 0.00 82 1010.1
20260506173050 81 37 4.0 10.0 0.00 0.00 0.00 82 1012.3
20260506171543 80 13 4.0 9.0 0.00 0.00 0.00 82 1010.3
20260506171538 80 19 3.0 9.0 0.00 0.00 0.00 83 1012.6
20260506170046 80 91 2.0 8.0 0.00 0.00 0.00 82 1010.2
20260506170036 80 91 2.0 8.0 0.00 0.00 0.00 83 1012.7
20260506164547 79 37 0.0 4.0 0.00 0.00 0.00 84 1010.3
20260506164533 79 37 1.0 4.0 0.00 0.00 0.00 85 1012.6
20260506163103 79 36 3.0 6.0 0.00 0.00 0.00 86 1010.3
20260506163050 79 36 2.0 6.0 0.00 0.00 0.00 87 1012.5
20260506161626 78 13 2.0 5.0 0.00 0.00 0.00 90 1012.5
20260506161542 78 5 2.0 5.0 0.00 0.00 0.00 89 1010.2
20260506160051 76 40 2.0 4.0 0.00 0.00 0.00 91 1010.0
20260506160023 76 41 2.0 4.0 0.00 0.00 0.00 92 1012.3
20260506154554 76 0 0.0 3.0 0.00 0.00 0.00 90 1010.0
20260506154531 76 50 1.0 3.0 0.00 0.00 0.00 91 1012.3
20260506153047 76 80 1.0 4.0 0.00 0.00 0.00 90 1009.8
20260506153025 76 80 2.0 4.0 0.00 0.00 0.00 91 1012.2
20260506151544 76 58 1.0 3.0 0.00 0.00 0.00 89 1009.5
20260506151520 76 63 1.0 3.0 0.00 0.00 0.00 90 1012.0
20260506150042 76 52 1.0 4.0 0.00 0.00 0.00 89 1009.4
20260506150019 76 51 0.0 4.0 0.00 0.00 0.00 90 1011.7
20260506144547 76 46 2.0 4.0 0.00 0.00 0.00 89 1009.4
20260506144518 76 46 2.0 4.0 0.00 0.00 0.00 90 1011.7
20260506143042 76 0 0.0 5.0 0.00 0.00 0.00 90 1009.1
20260506143016 76 124 0.0 3.0 0.00 0.00 0.00 90 1011.2
20260506141549 76 126 3.0 7.0 0.00 0.00 0.00 89 1008.9
20260506141514 76 119 3.0 7.0 0.00 0.00 0.00 90 1011.1
20260506140049 76 141 2.0 8.0 0.00 0.00 0.00 90 1008.6
20260506140019 76 159 1.0 8.0 0.00 0.00 0.00 91 1010.7
20260506134542 75 125 4.0 10.0 0.00 0.00 0.00 91 1008.1
20260506134510 75 134 5.0 8.0 0.00 0.00 0.00 91 1010.5
20260506133049 75 91 2.0 8.0 0.00 0.00 0.00 91 1008.2
20260506133009 75 146 2.0 6.0 0.00 0.00 0.00 92 1010.2
20260506131544 75 152 2.0 8.0 0.00 0.00 0.00 92 1008.2
20260506131517 75 137 2.0 7.0 0.00 0.00 0.00 93 1010.2
20260506130042 75 115 4.0 10.0 0.00 0.00 0.00 92 1007.9
20260506130007 74 145 4.0 10.0 0.00 0.00 0.00 93 1009.9
20260506124546 75 102 2.0 8.0 0.00 0.00 0.00 93 1007.9
20260506124505 75 103 2.0 8.0 0.00 0.00 0.00 93 1009.9
20260506123052 75 148 3.0 8.0 0.00 0.00 0.00 93 1007.8
20260506123009 75 163 3.0 8.0 0.00 0.00 0.00 93 1009.8
20260506121608 75 130 4.0 6.0 0.00 0.00 0.00 93 1010.0
20260506121554 75 106 2.0 5.0 0.00 0.00 0.00 92 1007.8
20260506120053 74 142 1.0 8.0 0.00 0.00 0.00 93 1010.1
20260506120047 75 148 2.0 8.0 0.00 0.00 0.00 92 1007.8
20260506114553 75 178 1.0 3.0 0.00 0.00 0.00 92 1010.0
20260506114549 75 178 1.0 3.0 0.00 0.00 0.00 92 1007.8
20260506113052 75 180 2.0 4.0 0.00 0.00 0.00 92 1009.9
20260506113044 75 180 2.0 4.0 0.00 0.00 0.00 92 1007.7
20260506111551 75 166 3.0 6.0 0.00 0.00 0.00 92 1010.0
20260506111542 75 158 3.0 6.0 0.00 0.00 0.00 92 1007.7
20260506110051 75 123 1.0 3.0 0.00 0.00 0.00 92 1010.0
20260506110047 75 123 1.0 3.0 0.00 0.00 0.00 91 1007.7